• In Kazakhstan
  • List of Countries
  • For 7 days
  • Water Temperature
  • Weather Map
  • News
  • Weather Widgets
  • user-avatar
    Login

    Hourly Weather Egilsstaðir

    Today, 9 December, Monday

    Time Temperature Precipitation Wind Pressure Humidity
    00:00 -14°C° 0.2 mm 2 mps 638 mmHg 94%
    01:00 -14°C° 0 mm 2 mps 637 mmHg 94%
    02:00 -14°C° 0.1 mm 2 mps 638 mmHg 94%
    03:00 -14°C° 0.1 mm 2 mps 638 mmHg 94%
    04:00 -14°C° 0.1 mm 2 mps 638 mmHg 94%
    05:00 -14°C° 0.1 mm 2 mps 639 mmHg 94%
    06:00 -14°C° 0.1 mm 2 mps 640 mmHg 94%
    07:00 -12°C° 0 mm 1 mps 640 mmHg 95%
    08:00 -12°C° 0.1 mm 1 mps 641 mmHg 95%
    09:00 -15°C° 0.1 mm 2 mps 642 mmHg 95%
    10:00 -15°C° 0.1 mm 2 mps 643 mmHg 95%
    11:00 -15°C° 0.1 mm 2 mps 644 mmHg 95%
    12:00 -15°C° 0.1 mm 2 mps 645 mmHg 95%
    13:00 -16°C° 0.1 mm 2 mps 646 mmHg 96%
    14:00 -16°C° 0 mm 2 mps 646 mmHg 95%
    15:00 -16°C° 0 mm 2 mps 647 mmHg 95%
    16:00 -16°C° 0 mm 2 mps 647 mmHg 95%
    17:00 -15°C° 0.4 mm 2 mps 648 mmHg 95%
    18:00 -16°C° 0.4 mm 3 mps 649 mmHg 95%
    19:00 -15°C° 0.4 mm 3 mps 650 mmHg 95%
    20:00 -15°C° 0.2 mm 3 mps 651 mmHg 93%
    21:00 -15°C° 0.2 mm 4 mps 652 mmHg 91%
    22:00 -15°C° 0.2 mm 4 mps 652 mmHg 88%
    23:00 -15°C° 0 mm 3 mps 653 mmHg 86%

    Tomorrow, 10 December, Tuesday

    Time Temperature Precipitation Wind Pressure Humidity
    00:00 -16°C° 0 mm 3 mps 654 mmHg 84%
    01:00 -16°C° 0 mm 2 mps 655 mmHg 82%
    02:00 -15°C° 0 mm 2 mps 655 mmHg 83%
    03:00 -15°C° 0 mm 2 mps 656 mmHg 85%
    04:00 -15°C° 0 mm 2 mps 657 mmHg 86%
    05:00 -15°C° 0 mm 2 mps 658 mmHg 88%
    06:00 -15°C° 0 mm 2 mps 658 mmHg 91%
    07:00 -15°C° 0 mm 2 mps 659 mmHg 93%
    08:00 -13°C° 0 mm 1 mps 659 mmHg 94%
    09:00 -14°C° 0 mm 1 mps 659 mmHg 95%
    10:00 -14°C° 0 mm 1 mps 660 mmHg 96%
    11:00 -14°C° 0 mm 1 mps 660 mmHg 96%
    12:00 -14°C° 0 mm 1 mps 660 mmHg 96%
    13:00 -16°C° 0 mm 2 mps 660 mmHg 95%
    14:00 -16°C° 0 mm 2 mps 659 mmHg 95%
    15:00 -16°C° 0 mm 2 mps 659 mmHg 94%
    16:00 -16°C° 0 mm 2 mps 658 mmHg 93%
    17:00 -17°C° 0 mm 3 mps 657 mmHg 92%
    18:00 -16°C° 0 mm 3 mps 656 mmHg 90%
    19:00 -17°C° 0 mm 4 mps 656 mmHg 89%
    20:00 -17°C° 0.2 mm 4 mps 655 mmHg 91%
    21:00 -17°C° 0.2 mm 4 mps 654 mmHg 92%
    22:00 -17°C° 0.2 mm 4 mps 653 mmHg 94%
    23:00 -16°C° 0.6 mm 4 mps 652 mmHg 94%

    Day after tomorrow, 11 December, Wednesday

    Time Temperature Precipitation Wind Pressure Humidity
    00:00 -17°C° 0.6 mm 5 mps 651 mmHg 94%
    01:00 -15°C° 0.6 mm 5 mps 650 mmHg 94%
    02:00 -14°C° 1.2 mm 5 mps 649 mmHg 94%
    03:00 -14°C° 1.2 mm 6 mps 649 mmHg 95%
    04:00 -11°C° 1.2 mm 6 mps 648 mmHg 95%
    05:00 -11°C° 1.5 mm 6 mps 648 mmHg 95%
    06:00 -11°C° 1.5 mm 7 mps 648 mmHg 95%
    07:00 -9°C° 1.5 mm 7 mps 648 mmHg 95%
    08:00 -9°C° 1.3 mm 6 mps 648 mmHg 95%
    09:00 -8°C° 1.3 mm 5 mps 648 mmHg 96%
    10:00 -8°C° 1.3 mm 4 mps 648 mmHg 96%
    11:00 -8°C° 0.6 mm 4 mps 648 mmHg 96%
    12:00 -7°C° 0.6 mm 3 mps 648 mmHg 96%
    13:00 -6°C° 0.6 mm 2 mps 648 mmHg 96%
    14:00 -6°C° 0.4 mm 2 mps 648 mmHg 96%
    15:00 -6°C° 0.4 mm 2 mps 649 mmHg 96%
    16:00 -7°C° 0.4 mm 2 mps 649 mmHg 96%
    17:00 -8°C° 0 mm 3 mps 649 mmHg 94%
    18:00 -9°C° 0 mm 3 mps 649 mmHg 92%
    19:00 -10°C° 0 mm 3 mps 649 mmHg 89%
    20:00 -10°C° 0 mm 3 mps 649 mmHg 87%
    21:00 -12°C° 0 mm 4 mps 649 mmHg 85%
    22:00 -12°C° 0 mm 4 mps 649 mmHg 83%
    23:00 -14°C° 0 mm 4 mps 648 mmHg 86%

    12 December, Thursday

    Time Temperature Precipitation Wind Pressure Humidity
    00:00 -14°C° 0 mm 4 mps 648 mmHg 89%
    01:00 -15°C° 0 mm 4 mps 648 mmHg 93%
    02:00 -15°C° 0 mm 4 mps 648 mmHg 93%
    03:00 -15°C° 0 mm 4 mps 648 mmHg 94%
    04:00 -15°C° 0 mm 4 mps 648 mmHg 95%
    05:00 -15°C° 0 mm 4 mps 647 mmHg 94%
    06:00 -15°C° 0 mm 4 mps 647 mmHg 93%
    07:00 -15°C° 0 mm 4 mps 647 mmHg 92%
    08:00 -14°C° 0 mm 4 mps 647 mmHg 92%
    09:00 -14°C° 0 mm 4 mps 647 mmHg 91%
    10:00 -14°C° 0 mm 4 mps 647 mmHg 91%
    11:00 -14°C° 0 mm 4 mps 648 mmHg 91%
    12:00 -12°C° 0 mm 4 mps 648 mmHg 91%
    13:00 -12°C° 0 mm 4 mps 648 mmHg 91%
    14:00 -14°C° 0 mm 4 mps 648 mmHg 91%
    15:00 -13°C° 0 mm 3 mps 648 mmHg 92%
    16:00 -14°C° 0 mm 3 mps 647 mmHg 93%
    17:00 -14°C° 0 mm 3 mps 647 mmHg 93%
    18:00 -14°C° 0 mm 3 mps 647 mmHg 94%
    19:00 -14°C° 0 mm 3 mps 647 mmHg 95%
    20:00 -13°C° 0 mm 3 mps 647 mmHg 95%
    21:00 -13°C° 0 mm 3 mps 647 mmHg 96%
    22:00 -13°C° 0 mm 3 mps 647 mmHg 96%
    23:00 -13°C° 0 mm 3 mps 647 mmHg 96%

    13 December, Friday

    Time Temperature Precipitation Wind Pressure Humidity
    00:00 -13°C° 0 mm 3 mps 647 mmHg 96%
    01:00 -13°C° 0 mm 3 mps 647 mmHg 96%
    02:00 -13°C° 0.2 mm 3 mps 647 mmHg 95%
    03:00 -12°C° 0.2 mm 3 mps 647 mmHg 95%
    04:00 -12°C° 0.2 mm 3 mps 647 mmHg 95%
    05:00 -11°C° 0.1 mm 4 mps 647 mmHg 94%
    06:00 -10°C° 0.1 mm 4 mps 647 mmHg 94%
    07:00 -10°C° 0.1 mm 4 mps 647 mmHg 94%
    08:00 -10°C° 0 mm 4 mps 648 mmHg 94%
    09:00 -10°C° 0 mm 4 mps 648 mmHg 94%
    10:00 -10°C° 0 mm 4 mps 648 mmHg 94%
    11:00 -10°C° 0 mm 4 mps 648 mmHg 94%
    12:00 -9°C° 0 mm 3 mps 648 mmHg 93%
    13:00 -9°C° 0 mm 3 mps 648 mmHg 93%
    14:00 -9°C° 0 mm 3 mps 648 mmHg 94%
    15:00 -10°C° 0 mm 3 mps 648 mmHg 94%
    16:00 -10°C° 0 mm 3 mps 648 mmHg 94%
    17:00 -10°C° 0 mm 2 mps 648 mmHg 94%
    18:00 -12°C° 0 mm 2 mps 647 mmHg 94%
    19:00 -13°C° 0 mm 2 mps 647 mmHg 94%
    20:00 -13°C° 0 mm 2 mps 647 mmHg 94%
    21:00 -14°C° 0 mm 2 mps 647 mmHg 95%
    22:00 -14°C° 0 mm 2 mps 647 mmHg 95%
    23:00 -14°C° 0 mm 2 mps 647 mmHg 95%

    14 December, Saturday

    Time Temperature Precipitation Wind Pressure Humidity
    00:00 -14°C° 0 mm 2 mps 647 mmHg 95%
    01:00 -14°C° 0 mm 2 mps 647 mmHg 95%
    02:00 -14°C° 0 mm 2 mps 647 mmHg 95%
    03:00 -14°C° 0 mm 2 mps 647 mmHg 95%
    04:00 -14°C° 0 mm 2 mps 648 mmHg 95%
    05:00 -14°C° 0 mm 2 mps 648 mmHg 95%
    06:00 -14°C° 0 mm 2 mps 648 mmHg 95%
    07:00 -15°C° 0 mm 3 mps 648 mmHg 95%
    08:00 -15°C° 0.1 mm 3 mps 648 mmHg 94%
    09:00 -14°C° 0.1 mm 3 mps 648 mmHg 94%
    10:00 -14°C° 0.1 mm 3 mps 648 mmHg 94%
    11:00 -14°C° 0.1 mm 3 mps 648 mmHg 93%
    12:00 -14°C° 0.1 mm 3 mps 648 mmHg 93%
    13:00 -14°C° 0.1 mm 3 mps 648 mmHg 93%
    14:00 -14°C° 0.1 mm 3 mps 648 mmHg 93%
    15:00 -13°C° 0.1 mm 3 mps 648 mmHg 93%
    16:00 -13°C° 0.1 mm 3 mps 648 mmHg 93%
    17:00 -13°C° 0.1 mm 3 mps 648 mmHg 93%
    18:00 -13°C° 0.1 mm 3 mps 648 mmHg 93%
    19:00 -13°C° 0.1 mm 3 mps 648 mmHg 93%
    20:00 -14°C° 0.1 mm 4 mps 648 mmHg 93%
    21:00 -12°C° 0.1 mm 4 mps 648 mmHg 93%
    22:00 -12°C° 0.1 mm 4 mps 648 mmHg 93%
    23:00 -13°C° 0.2 mm 5 mps 648 mmHg 93%
    Show more